Temp
21 21 21 21 21 21 22 22 22 22 21 21 21 21 22 22 22 23 23 23 23 23 23 23 23 23 23 23 23 23 22 22 22 22 22 22 22 22 22 22 22 22 22 22 21 21 21 22 22 22 22 21 21 21 21 21 21 21 22 22 22 22 21 21 21 21 20 21 21 21 21 21 21 21 21 21 21 21 21 21 21 21 21 20 20
21 21 21 21 21 22 22 22 22 22 22 22 22 22 22 22 23 23 23 23 23 23 23 23 23 23 23 23 23 23 23 22 22 22 22 23 22 22 22 22 22 22 22 22 21 21 21 21 22 21 21 21 21 21 21 21 21 21 21 22 22 22 22 21 21 21 20 21 21 21 21 21 21 20 21 21 21 21 21 21 21 21 21 20 20
21 21 21 21 21 21 22 22 22 22 22 22 22 22 22 23 23 23 23 23 23 23 23 23 23 23 23 23 23 23 22 22 23 23 23 23 23 22 22 22 22 22 22 22 22 21 21 21 21 21 21 21 21 21 21 21 21 21 21 22 22 22 22 22 22 21 20 20 20 20 20 20 21 20 21 21 21 21 21 21 21 21 21 20 20
21 21 21 21 21 21 22 22 22 22 22 22 22 22 22 23 23 23 23 23 23 23 23 23 23 23 23 23 22 22 22 23 23 23 23 23 23 23 22 22 22 22 22 21 21 21 21 22 21 21 21 21 21 21 21 21 21 21 21 21 22 22 22 21 21 21 21 20 20 21 21 21 21 20 21 21 21 21 21 21 21 21 20 20 20
21 21 21 21 21 21 22 22 23 23 22 22 22 22 22 23 23 22 23 23 23 23 23 23 23 23 23 23 22 22 22 23 23 23 23 23 23 23 22 22 22 22 22 21 21 21 21 21 21 21 21 21 21 21 21 21 21 21 21 21 22 22 21 21 21 21 21 21 21 21 21 20 20 20 21 21 21 21 21 21 21 21 20 20 20
21 21 21 21 21 21 21 22 22 23 22 22 22 22 22 23 22 22 23 23 23 23 23 23 23 23 23 23 22 22 23 23 23 23 23 23 23 22 22 22 22 22 22 21 21 21 21 21 21 21 21 21 21 21 21 21 21 21 21 21 21 21 21 21 21 21 21 21 20 21 20 20 20 20 20 20 21 21 21 21 21 21 20 20 20
22 21 21 21 21 21 21 22 22 22 22 22 22 22 22 22 22 23 23 23 23 23 23 23 23 23 23 22 22 23 23 23 23 23 22 22 23 23 22 22 22 22 22 22 21 21 21 21 21 21 22 22 22 22 21 21 21 21 21 21 21 21 21 21 21 21 21 21 21 21 21 20 21 20 20 20 20 21 21 21 21 20 20 21 20
22 22 21 21 21 21 21 22 22 22 22 22 22 22 22 23 23 23 23 23 23 23 23 23 23 23 22 22 23 23 23 23 22 22 22 22 23 22 22 22 22 22 22 22 22 22 22 21 21 21 22 22 22 22 22 22 22 21 21 21 21 21 21 21 21 21 21 21 20 21 21 21 21 20 20 21 20 20 21 21 21 20 20 21 21
21 21 21 22 21 21 21 22 22 22 22 22 22 22 23 23 23 23 23 23 23 23 23 23 23 23 22 23 23 23 23 23 23 22 22 23 22 22 22 22 22 22 22 22 22 22 22 21 21 21 21 21 21 21 21 22 21 21 21 22 21 21 21 21 21 21 21 21 20 20 20 21 21 21 21 21 21 20 21 21 21 20 20 20 21
21 21 21 21 21 21 21 22 22 22 22 22 22 23 23 23 23 23 23 23 23 23 23 23 23 23 23 23 23 23 23 23 23 23 23 23 22 22 22 22 22 22 22 22 22 22 22 21 21 21 21 21 21 21 21 21 21 22 22 22 21 21 21 21 21 21 21 21 20 20 20 20 21 21 21 21 21 20 21 21 21 21 20 20 20
21 21 21 21 21 21 22 22 22 22 22 22 23 23 23 23 23 23 23 23 23 23 23 23 23 23 23 23 23 23 23 23 23 23 23 23 23 22 22 22 22 22 22 22 22 22 22 21 21 21 21 21 21 21 21 21 22 22 22 22 21 21 21 21 21 21 21 21 21 20 20 20 20 21 21 21 21 20 20 21 21 21 21 20 20
21 21 21 21 21 21 22 22 22 22 22 22 23 23 23 23 23 23 23 23 23 23 23 23 23 23 23 23 23 23 23 23 23 23 23 23 23 23 22 22 22 22 22 21 21 21 22 21 21 21 21 21 21 21 21 21 21 21 21 21 22 21 21 21 21 21 21 21 21 21 20 20 20 20 21 21 21 20 20 21 21 21 21 20 20
21 21 21 21 21 21 22 22 22 22 22 23 23 23 23 23 23 23 23 23 23 23 23 23 23 22 23 23 23 23 23 23 23 23 23 23 23 22 22 22 22 22 22 21 21 21 21 21 21 21 21 21 21 21 21 21 21 21 21 21 21 21 21 22 21 21 21 21 21 21 20 20 20 20 20 21 21 20 20 21 21 21 21 20 20
21 21 21 21 21 22 22 22 22 22 22 23 23 23 23 23 23 23 23 23 23 23 23 23 22 22 22 23 23 23 23 23 23 23 23 23 23 22 22 22 22 22 22 22 21 21 22 22 21 21 21 21 21 21 21 21 21 21 21 21 21 21 21 22 22 21 21 21 21 21 20 20 20 20 20 21 20 20 20 20 20 21 21 20 20
21 21 21 21 21 21 22 22 22 22 22 23 23 23 23 23 23 23 23 23 23 23 22 22 22 23 23 23 23 23 23 23 23 23 23 23 23 23 22 22 22 22 22 22 22 22 22 22 21 21 21 21 21 21 21 21 21 21 21 21 21 21 21 22 22 22 21 21 21 21 21 20 20 20 20 20 20 20 20 20 20 20 21 20 20
21 21 21 21 21 21 22 22 22 22 22 23 23 23 23 23 23 23 23 23 23 23 22 22 22 23 23 23 23 23 23 23 23 23 23 23 23 23 22 22 22 22 22 22 22 22 22 22 22 22 22 22 21 21 21 21 21 21 21 21 21 21 21 21 22 22 21 21 21 21 21 21 20 20 20 20 20 20 20 20 20 20 21 20 20
21 21 21 21 21 21 21 22 22 22 22 23 23 23 23 23 23 23 23 23 23 23 23 22 22 23 23 23 23 23 23 23 23 23 23 23 23 23 22 22 22 22 22 22 22 22 22 22 22 22 22 22 22 22 21 21 21 21 21 21 21 21 22 21 21 22 21 22 22 22 21 21 21 20 20 20 20 20 20 20 20 20 20 21 20
21 21 21 21 21 21 21 22 22 22 22 22 23 23 23 23 23 23 23 23 23 23 23 22 23 23 23 23 23 23 23 23 23 23 23 23 23 23 22 22 22 22 22 22 22 22 22 22 22 22 22 22 22 22 22 22 21 21 21 21 21 21 21 21 21 21 21 21 22 22 21 21 21 20 20 20 20 20 20 20 20 20 20 20 20
21 21 21 21 21 21 21 22 22 22 22 22 22 23 23 23 23 23 23 23 23 23 23 23 23 23 23 23 23 23 23 23 23 23 23 23 23 23 22 22 21 22 22 22 23 23 23 22 22 22 22 22 22 22 22 22 21 21 21 21 21 21 21 21 21 21 21 21 21 22 21 21 21 21 20 20 20 20 20 20 20 20 20 20 20
21 21 21 21 21 21 21 21 21 22 22 22 22 22 22 22 22 23 23 23 23 23 23 23 23 23 23 23 23 23 23 23 23 23 23 23 23 23 23 22 21 22 22 22 23 23 23 23 22 22 22 22 22 22 22 22 21 22 21 21 21 21 21 21 21 21 21 21 21 21 21 21 21 21 20 20 20 20 20 21 21 20 20 20 20
20 21 21 21 21 21 21 21 21 21 22 22 22 22 22 22 22 22 23 23 23 23 23 23 22 23 23 23 23 23 23 23 23 23 23 23 23 23 23 22 22 22 22 22 23 23 23 23 22 22 22 22 22 22 22 22 21 22 22 21 21 21 21 21 21 21 21 21 21 21 21 21 21 21 21 21 20 20 20 20 21 20 20 20 20
20 20 21 21 21 21 21 21 21 21 21 22 22 22 22 22 22 22 23 22 22 22 23 22 22 22 22 23 23 23 23 23 23 23 23 23 23 23 23 23 23 22 22 22 23 23 23 23 22 22 22 22 22 22 22 22 22 22 22 22 22 21 21 21 21 21 21 21 21 21 22 21 21 21 20 21 20 20 20 20 20 20 20 20 20
20 20 21 21 21 21 21 21 21 21 21 22 22 22 22 22 22 22 22 22 22 22 22 22 22 22 22 22 23 23 23 23 23 23 23 23 23 23 23 22 23 23 23 23 23 23 23 22 22 22 22 22 22 22 22 22 22 22 22 22 22 22 21 21 21 21 21 21 21 21 21 21 21 21 20 20 20 20 20 20 20 20 20 20 20
20 20 20 21 21 21 21 21 21 22 22 22 22 22 22 22 22 22 22 22 22 22 22 22 22 22 22 22 23 23 23 23 23 23 23 23 23 23 22 22 23 23 23 23 23 23 23 22 23 23 22 22 22 23 22 22 23 23 23 22 22 22 22 22 21 21 21 21 21 21 21 21 21 21 20 20 20 20 20 20 20 20 20 20 20
20 20 20 20 21 21 21 21 21 21 22 22 22 22 22 21 22 22 22 22 22 22 22 22 22 22 22 22 22 22 23 23 23 23 23 23 23 23 22 22 23 23 23 23 23 23 23 23 23 23 23 23 23 23 23 23 23 23 23 23 23 23 23 22 22 22 21 21 21 21 21 21 21 21 20 20 20 20 20 20 20 20 20 20 20
20 20 20 21 21 21 21 21 21 21 21 22 22 22 22 22 22 22 22 22 22 22 22 22 22 22 22 22 22 23 23 23 23 23 23 22 23 23 22 22 23 23 23 23 23 23 23 23 23 23 23 23 23 23 23 23 23 23 23 23 23 23 23 23 22 22 22 22 21 21 21 21 21 21 20 20 20 20 20 20 20 20 20 20 20
20 20 20 20 20 21 21 21 21 21 21 21 22 22 21 22 22 22 22 22 22 22 22 22 22 22 22 22 23 23 23 23 23 23 22 22 23 23 23 22 23 23 23 23 23 23 23 23 23 23 23 23 23 23 23 23 23 24 23 23 23 23 23 23 23 22 22 22 22 21 21 21 21 21 20 20 20 20 20 20 20 20 20 20 20
20 20 20 20 20 21 21 21 21 21 21 21 21 22 22 22 22 22 22 22 22 22 22 22 22 22 22 22 23 23 23 23 23 23 22 22 23 23 23 22 23 23 23 23 23 23 23 23 23 23 23 23 23 23 23 23 23 24 24 24 24 24 23 23 23 23 23 22 22 22 21 21 21 21 21 20 20 20 20 20 20 20 20 20 20
20 21 20 20 20 21 21 21 21 21 21 21 21 22 22 22 22 22 22 22 22 22 22 22 22 23 23 23 23 23 23 23 23 23 22 22 23 23 23 23 23 23 23 23 23 23 23 23 23 23 23 23 23 23 23 23 23 24 24 24 24 24 24 24 23 23 23 23 22 22 22 21 21 21 20 20 21 20 20 20 20 20 20 20 20
21 21 20 20 20 20 21 21 21 21 21 21 21 22 22 22 22 22 22 22 22 22 22 22 23 23 23 23 23 23 23 23 23 23 22 22 23 23 23 23 23 23 23 23 23 23 23 23 23 23 23 23 23 23 23 23 24 24 24 24 24 24 24 24 24 23 23 23 23 22 22 21 21 21 21 21 21 20 20 20 20 20 20 20 20
21 21 21 21 21 20 21 21 21 21 21 21 21 22 22 22 22 22 22 22 22 22 22 23 23 23 23 23 23 23 23 23 23 22 22 22 23 23 23 23 23 23 23 23 23 23 23 23 23 23 23 23 23 23 23 23 24 24 24 24 24 24 24 24 24 24 24 23 23 23 22 22 22 21 21 21 21 20 20 20 20 20 20 20 20
21 21 21 21 21 21 21 21 21 21 21 21 21 22 22 22 22 22 22 22 22 23 23 23 23 23 23 23 23 23 23 23 23 22 22 22 23 23 23 23 23 23 23 23 23 23 23 23 23 23 23 23 23 23 23 24 24 24 24 24 24 24 24 24 24 24 24 24 23 23 23 22 22 22 21 21 21 20 21 21 20 21 21 20 20
21 21 21 21 21 21 21 21 21 21 21 21 21 22 22 22 22 23 23 23 23 23 23 23 23 23 23 23 23 23 23 23 23 23 22 23 23 23 23 23 23 23 23 23 23 23 23 23 23 23 23 23 23 23 23 24 24 24 24 24 24 24 24 24 24 24 24 24 23 23 23 23 22 22 21 21 21 21 21 21 21 21 20 20 21
22 21 21 21 21 21 21 21 21 21 21 21 21 22 22 22 22 23 23 23 23 23 23 23 23 23 23 23 23 23 23 23 23 23 23 23 23 23 23 23 23 23 23 23 23 23 23 23 23 23 22 22 23 23 23 23 24 24 24 23 23 24 24 24 24 24 24 24 23 23 23 23 23 22 22 21 21 21 21 21 21 21 20 20 20
22 22 22 22 21 21 21 21 21 21 21 21 22 22 22 22 22 23 23 23 23 23 23 23 23 23 23 23 23 23 23 23 23 23 23 23 23 23 23 23 23 23 23 23 23 23 23 23 23 22 22 22 22 23 23 23 24 23 23 23 23 24 24 24 24 24 24 24 23 23 23 23 23 22 22 22 21 21 21 21 21 21 20 20 20
22 22 22 22 22 22 22 21 22 22 22 22 22 22 22 22 23 23 23 23 23 23 23 23 23 23 23 23 24 24 23 23 23 23 23 23 23 23 23 23 23 23 23 23 23 23 23 23 23 23 22 22 22 22 23 23 24 23 23 23 24 24 24 24 24 24 24 24 24 23 23 23 22 22 22 22 21 21 21 21 21 21 20 20 21
22 22 22 22 22 22 22 22 22 22 22 22 22 22 22 22 23 23 23 23 23 23 23 23 23 23 23 23 24 24 23 23 23 23 23 23 23 23 23 23 23 23 23 23 23 23 23 23 23 22 22 22 22 22 22 23 23 23 23 23 23 23 24 24 24 24 24 24 24 24 23 23 22 22 22 22 21 21 21 21 21 21 20 20 21
23 23 23 22 22 22 22 22 22 22 22 22 22 22 22 22 22 23 23 23 23 23 23 23 23 23 23 23 24 24 23 23 23 23 23 23 23 23 23 23 23 23 23 23 23 23 23 23 22 22 22 22 21 21 22 23 23 23 23 23 23 23 23 23 24 24 24 24 24 24 23 23 22 22 22 21 21 21 21 21 21 21 21 20 21
23 23 23 23 22 22 22 22 22 22 22 22 22 21 22 21 22 22 22 23 23 23 23 23 23 23 23 23 23 23 23 23 23 23 23 23 23 23 23 23 23 23 23 23 23 22 22 22 22 22 22 22 21 21 22 22 23 23 23 23 23 23 23 23 23 24 24 24 24 23 23 23 23 22 22 22 21 21 21 21 21 21 21 21 21
23 23 23 23 23 22 22 22 22 22 22 22 21 21 21 21 21 21 21 22 22 23 23 23 23 23 23 23 23 23 23 24 24 24 24 23 23 23 23 23 23 23 22 22 22 22 22 22 22 22 22 22 21 21 22 22 22 23 23 23 23 23 23 23 23 23 23 23 23 23 23 23 23 23 22 22 21 21 21 21 21 21 21 21 21
23 23 23 23 23 23 22 22 22 22 22 21 21 21 21 21 21 21 21 22 22 22 23 23 23 23 23 23 23 24 24 24 24 24 24 24 23 23 23 23 23 23 22 22 22 22 22 22 22 21 21 21 21 21 22 22 22 22 23 23 22 22 23 23 23 23 23 23 23 23 23 23 23 23 22 22 22 21 21 21 21 21 21 21 21
23 23 23 23 23 23 23 22 22 22 22 22 22 21 22 22 22 21 22 22 22 23 23 23 23 23 23 24 24 24 24 24 24 24 24 24 24 23 23 23 23 23 22 22 22 22 22 21 21 21 21 21 21 21 22 22 22 22 22 22 22 22 22 22 23 23 23 23 23 23 23 23 23 23 22 22 22 22 22 21 21 21 21 21 21
24 23 23 23 23 23 23 23 22 22 22 22 22 22 22 22 22 22 22 22 23 23 23 23 23 23 24 24 24 24 24 24 24 24 24 24 24 23 23 23 23 23 22 22 22 22 21 21 21 21 21 21 21 21 21 22 22 22 21 22 21 21 22 22 22 23 23 23 23 23 23 23 23 23 22 22 22 22 22 22 21 21 21 21 21
24 24 23 23 23 23 23 23 23 22 22 22 22 22 22 22 22 22 22 22 23 23 23 23 23 24 24 24 24 24 24 24 24 24 24 24 24 23 23 23 23 23 23 22 22 22 21 21 21 21 21 21 21 21 22 22 22 22 21 20 19 20 21 21 21 22 22 23 23 22 22 22 23 23 22 22 22 22 22 22 22 22 21 21 21
24 24 24 24 23 23 23 23 23 23 23 22 22 22 22 22 22 22 22 22 22 22 22 22 23 23 24 24 24 24 24 24 24 24 24 24 24 24 23 23 23 23 23 22 22 22 21 21 21 21 21 21 21 21 22 22 22 22 21 20 20 21 22 20 21 22 22 22 22 22 22 22 22 22 22 22 22 22 22 22 22 22 21 21 21
24 24 24 24 24 24 23 23 23 23 23 23 22 22 22 22 22 22 22 22 22 22 22 22 23 23 24 24 24 24 24 24 24 24 24 24 24 24 23 23 23 23 23 22 22 22 21 21 21 21 21 21 21 21 22 22 22 22 22 22 22 22 22 20 20 21 21 21 21 21 22 22 22 22 22 22 22 22 22 22 22 22 22 21 21
25 25 24 24 24 24 23 23 23 23 23 23 23 22 22 22 22 22 22 22 22 22 23 23 23 24 24 24 24 24 24 24 24 24 24 24 24 24 24 23 23 23 23 22 22 22 21 21 21 21 21 21 21 21 22 22 22 22 22 22 22 22 22 22 21 21 21 21 21 21 21 21 22 22 22 22 22 22 22 22 22 22 22 21 21
25 25 24 24 24 24 24 24 23 23 23 23 23 23 22 22 22 22 22 22 22 23 23 23 23 23 24 24 24 24 24 24 24 24 24 24 24 24 24 24 23 23 23 22 22 22 21 21 21 21 21 21 21 22 22 22 22 22 22 22 22 22 22 22 22 22 22 21 21 21 21 21 21 22 22 22 22 22 22 22 22 22 22 22 21
25 25 25 25 24 24 24 24 23 23 23 23 23 23 23 23 22 22 22 22 23 23 23 23 23 23 23 24 24 24 24 24 24 24 24 24 24 24 24 24 24 23 23 23 22 22 21 21 21 21 21 21 22 22 22 22 22 22 22 22 22 22 22 22 22 22 22 21 21 20 20 21 21 21 22 22 22 22 22 22 22 22 22 22 22
26 25 25 25 24 24 24 24 24 23 23 23 23 23 23 23 22 22 23 23 23 23 23 23 23 23 23 23 24 24 24 24 24 24 24 24 24 24 24 24 24 23 23 23 22 22 22 21 22 22 22 22 22 22 22 22 22 22 22 22 22 22 22 21 21 22 21 21 21 20 20 21 21 22 22 22 22 22 22 22 22 22 22 22 22
26 25 25 25 25 24 24 24 24 24 23 23 23 23 23 23 23 23 23 23 23 23 23 23 23 23 23 23 24 24 24 24 24 24 24 24 24 24 24 24 24 23 23 23 22 22 22 22 22 22 22 22 22 22 22 22 22 22 22 22 22 22 22 22 22 22 22 21 21 20 20 21 21 21 22 22 22 22 22 22 22 22 22 22 22
Height
805 805 806 806 809 810 811 811 812 813 814 815 815 816 817 819 820 822 823 825 826 828 829 830 830 831 832 833 834 834 835 835 836 836 837 837 837 838 838 838 838 839 839 840 840 840 841 840 840 840 840 840 840 840 840 840 840 840 840 840 840 841 841 841 841 842 842 842 842 842 843 843 844 844 845 845 845 844 845 845 846 846 847 848 849
804 806 807 808 810 811 812 812 814 814 815 816 816 818 819 821 822 824 825 826 828 829 830 831 832 833 833 834 835 835 836 836 837 837 838 838 838 838 839 839 839 840 841 841 841 841 842 841 841 841 841 841 840 840 840 840 840 840 841 841 841 841 842 842 842 843 843 843 844 844 844 844 845 845 846 846 846 846 846 846 847 847 848 849 850
805 807 808 809 810 812 813 814 815 816 816 817 818 819 821 823 824 825 826 828 829 830 831 832 833 834 834 835 836 836 837 838 838 838 838 838 839 839 839 840 840 841 842 842 842 842 842 843 843 842 841 841 841 841 841 841 841 842 841 842 842 842 843 843 843 844 844 845 845 845 845 846 846 846 847 847 847 847 847 848 848 848 849 850 851
806 807 809 810 811 813 814 815 816 817 818 818 820 821 822 824 825 827 828 829 830 831 832 833 834 835 835 836 837 838 838 838 839 839 839 839 840 840 840 841 841 842 843 844 843 842 843 844 844 843 842 842 842 842 842 842 842 843 842 843 843 843 844 844 844 845 845 846 846 846 846 847 847 848 848 848 848 848 848 849 849 850 850 851 852
807 808 809 811 812 814 815 816 817 818 819 820 821 823 824 826 827 828 829 831 831 833 833 834 835 835 836 837 838 839 839 839 839 840 840 840 840 841 841 842 843 843 844 845 844 844 844 845 844 843 844 843 843 843 843 843 843 843 843 844 844 844 844 845 845 846 846 846 847 847 847 848 848 849 849 849 849 849 850 850 850 851 851 852 853
807 809 810 811 813 814 816 818 819 820 821 822 823 825 826 827 829 830 831 832 832 834 834 835 835 836 837 838 839 839 840 840 840 841 841 841 841 842 842 843 844 844 845 846 846 845 845 846 845 844 845 844 844 844 844 844 844 844 844 845 845 845 845 846 846 846 847 847 848 848 849 849 849 850 850 850 850 850 850 851 851 851 852 853 853
807 809 811 812 814 816 818 819 820 821 823 824 825 826 827 829 830 831 832 833 834 834 835 835 836 837 838 839 840 840 841 841 842 842 842 842 842 843 843 844 844 845 846 846 846 846 846 846 846 845 845 845 845 845 844 845 845 845 845 845 846 846 847 847 847 847 847 848 848 849 849 850 850 850 851 851 851 851 851 852 852 852 852 853 854
808 810 812 813 815 817 819 820 821 822 824 825 826 827 828 829 831 832 833 834 834 835 835 836 837 838 839 840 840 841 842 842 843 843 843 843 843 844 844 845 846 846 847 847 847 846 847 847 846 846 846 846 846 845 845 845 846 846 846 846 846 847 847 847 848 848 848 849 849 849 850 850 851 851 851 852 852 852 852 853 853 853 853 854 854
810 811 813 815 816 818 820 821 822 823 825 826 827 828 829 830 831 833 834 834 835 836 836 837 838 839 839 840 841 842 843 843 844 844 844 844 845 845 846 846 847 847 848 848 847 847 847 847 846 846 846 846 846 846 846 846 846 846 847 847 847 847 848 848 848 849 849 850 850 850 850 851 851 851 852 852 853 853 853 853 854 854 854 855 855
810 812 814 815 817 819 820 822 823 824 825 826 828 829 829 831 832 833 834 835 836 836 837 838 839 840 840 841 842 843 844 844 845 845 845 845 846 846 847 847 848 848 848 848 848 847 847 847 847 847 847 847 846 847 847 847 847 847 847 847 847 848 848 848 849 849 850 850 851 851 851 851 852 852 852 853 853 853 854 854 854 855 855 856 856
810 812 814 815 817 819 821 822 823 825 826 827 828 829 830 831 833 834 835 835 836 837 838 839 840 841 842 843 844 844 845 845 846 846 846 847 847 848 848 848 849 849 849 849 849 848 848 848 848 848 848 847 847 847 847 847 848 848 847 848 848 848 848 849 849 850 850 851 852 852 852 852 852 852 853 853 853 854 854 855 855 855 856 857 857
811 813 814 816 818 820 821 823 824 826 826 827 828 829 831 832 833 834 835 836 837 838 839 840 841 842 843 844 845 845 846 846 846 847 847 848 848 849 849 849 850 850 850 850 850 849 849 849 849 849 848 848 848 848 848 848 848 848 848 848 848 849 849 849 850 851 851 851 852 852 853 853 853 853 853 854 854 855 855 855 856 856 857 857 858
811 813 815 817 818 820 822 823 825 826 827 828 829 830 831 832 834 835 836 837 837 839 840 841 842 843 844 845 845 846 846 847 847 848 848 849 849 850 850 850 850 851 851 851 851 850 850 849 850 850 849 849 849 849 849 849 849 849 849 849 849 849 850 850 851 851 852 852 853 853 853 854 854 853 854 854 855 855 855 856 857 857 858 858 859
811 813 815 817 818 821 822 824 825 826 827 828 830 831 832 833 834 835 836 837 838 840 841 842 843 844 845 846 846 847 847 847 848 848 849 850 850 850 850 851 851 852 852 852 851 851 851 850 850 850 850 850 849 849 849 850 850 850 850 850 850 850 851 851 852 852 853 853 854 854 854 855 854 854 855 855 855 856 856 857 858 858 859 859 859
812 813 815 817 819 821 822 824 825 827 828 829 830 831 832 833 835 836 837 838 839 840 841 843 843 845 845 846 847 847 847 848 848 849 850 851 851 851 851 852 852 852 852 853 852 852 852 851 851 851 851 851 850 850 850 850 850 850 850 851 851 851 852 852 852 853 853 854 854 855 855 855 855 855 855 856 856 857 858 858 859 859 860 860 860
812 814 816 817 819 821 823 825 826 827 828 829 831 832 833 834 835 836 837 839 840 841 842 843 844 845 846 846 847 847 848 848 849 850 851 852 852 852 852 853 853 853 853 853 853 853 853 852 852 852 852 852 851 851 851 851 851 852 852 852 852 852 852 853 853 854 854 854 854 855 855 855 856 856 856 857 857 858 858 859 860 860 861 861 862
813 814 816 818 820 821 823 825 826 827 829 830 831 832 833 834 836 837 838 839 840 841 842 843 844 845 846 846 847 847 848 849 849 850 851 852 852 853 853 853 853 853 853 853 854 853 854 853 853 853 852 852 852 852 852 852 853 853 854 853 853 853 853 853 854 854 854 854 854 855 855 855 856 856 857 858 858 858 859 860 860 861 862 862 863
813 815 816 818 820 821 823 825 826 828 829 830 831 832 834 835 836 837 838 839 840 841 842 843 844 845 846 846 847 848 849 849 850 851 852 853 853 853 853 854 854 854 854 854 854 854 854 854 853 853 853 853 853 853 853 853 854 855 854 854 854 854 853 853 854 855 855 855 855 855 855 856 856 857 858 858 859 859 860 861 861 862 863 863 864
814 815 817 819 820 822 823 825 826 827 829 830 831 833 834 835 836 837 838 839 840 841 842 843 844 845 846 847 847 848 849 850 850 851 852 853 853 854 854 854 855 855 855 854 854 854 855 854 854 854 853 853 853 853 854 854 855 855 854 854 854 855 854 854 854 855 856 856 856 856 856 857 857 858 858 859 859 860 860 861 862 863 863 864 865
814 816 817 819 820 822 823 825 826 827 829 830 831 833 834 835 836 837 838 839 840 841 842 843 844 845 846 847 848 849 849 850 851 852 852 853 853 854 854 855 855 855 855 855 855 855 855 855 855 855 854 854 854 854 854 854 855 855 855 855 855 855 855 855 855 856 856 856 857 857 857 857 858 858 859 859 860 860 861 861 862 863 864 865 866
814 815 817 818 819 822 823 824 826 827 829 829 831 832 834 835 836 837 838 840 840 841 842 843 845 845 847 847 848 849 849 850 851 852 852 853 853 853 854 855 855 855 855 855 855 855 855 856 855 855 855 855 855 854 854 855 855 855 855 855 855 855 855 855 856 856 856 857 857 857 857 857 858 859 859 860 861 861 862 862 863 864 864 865 866
813 815 816 818 819 821 822 824 826 827 828 829 831 832 834 835 836 837 838 839 840 841 842 844 845 845 847 847 848 849 849 850 851 852 852 853 853 853 854 854 855 855 855 855 855 856 856 856 856 856 856 856 855 855 855 855 855 855 855 855 855 855 855 856 856 856 857 857 857 857 858 858 859 859 860 861 861 862 862 863 864 864 865 865 866
812 813 815 817 819 821 822 824 825 827 828 829 831 832 834 834 836 837 838 839 840 841 842 843 844 845 846 847 848 849 849 850 851 852 852 853 854 854 854 854 854 855 855 855 856 856 856 856 856 856 856 856 856 856 855 855 855 855 855 855 855 855 856 856 856 857 857 857 857 858 858 858 859 860 860 861 861 862 863 863 864 865 865 866 866
810 812 814 817 818 820 822 823 825 826 827 829 830 832 833 834 835 837 838 839 840 841 842 843 844 845 846 847 848 849 850 850 851 852 852 853 853 854 854 854 854 854 855 855 855 856 856 856 856 856 856 856 856 856 856 856 856 856 856 856 856 856 856 856 856 857 857 857 857 858 858 859 860 860 861 861 862 862 863 863 864 865 865 866 867
810 812 814 816 817 819 821 823 824 825 827 828 829 831 833 834 835 836 838 838 839 840 841 843 844 845 846 847 848 849 850 850 851 851 852 853 853 854 854 854 854 854 855 855 856 856 856 856 856 856 856 856 856 856 856 856 856 856 856 857 857 857 857 857 857 857 857 857 857 858 858 859 860 860 861 861 862 862 863 864 864 865 866 866 867
810 811 812 814 816 818 820 822 824 825 826 828 829 831 832 833 834 836 837 838 839 840 841 842 843 845 846 847 848 849 849 850 851 851 852 852 853 854 854 854 854 854 855 855 856 856 856 856 857 857 857 857 857 857 857 857 857 857 857 857 857 857 857 857 857 857 857 857 857 858 858 859 859 860 861 861 861 862 863 864 864 865 866 866 867
808 810 811 814 815 817 819 821 823 824 826 827 829 830 831 833 834 835 836 837 838 840 841 842 843 844 845 847 847 848 849 850 851 851 852 852 853 853 854 854 855 855 855 855 856 856 857 857 857 857 857 857 857 857 857 857 857 857 857 857 857 857 857 857 857 857 857 857 857 858 858 859 859 860 861 861 861 862 863 863 864 865 865 866 867
807 809 810 812 814 816 818 820 822 823 825 827 828 829 831 832 833 835 836 837 838 839 841 842 843 844 845 846 847 848 849 849 850 851 852 852 853 853 854 854 855 856 856 856 856 856 857 857 857 857 857 858 857 858 857 857 857 857 857 857 857 857 857 857 857 857 857 857 857 858 858 859 859 859 860 860 861 862 862 863 864 865 866 866 867
805 807 809 811 813 815 817 819 821 822 824 826 827 829 830 831 833 834 835 837 838 839 840 841 842 843 844 845 846 847 848 849 850 851 852 852 853 854 854 854 855 856 856 856 857 857 857 857 857 857 858 858 858 858 857 857 857 857 857 857 857 857 857 857 857 858 858 858 858 858 858 858 859 859 860 860 860 861 862 863 864 865 865 866 866
804 806 808 810 812 814 816 817 819 821 823 825 826 827 829 830 831 833 834 836 837 839 840 841 842 843 844 845 846 847 848 848 849 850 851 852 853 854 854 855 855 856 856 856 857 857 857 857 857 857 858 858 858 858 857 857 857 857 857 857 857 857 857 857 857 857 857 858 858 858 858 858 858 858 859 860 860 861 862 863 864 864 864 865 866
804 805 807 809 811 813 814 816 819 821 822 824 825 826 828 829 831 832 834 835 836 838 839 840 841 842 843 844 845 846 847 848 849 850 851 852 853 854 854 855 855 856 856 856 856 857 857 857 857 857 857 857 858 858 858 858 857 857 857 857 857 857 857 857 857 857 857 858 858 858 858 858 858 858 858 859 860 861 862 863 863 863 864 865 866
802 803 805 807 810 811 813 815 817 819 821 823 824 826 827 828 830 831 833 834 836 837 838 839 840 842 843 844 845 846 847 848 849 850 851 852 852 853 854 854 855 855 855 856 856 856 856 857 857 857 857 857 857 857 857 858 858 857 857 857 857 857 857 857 857 857 857 857 858 858 858 858 858 858 858 859 859 860 861 862 862 863 864 865 865
799 801 804 806 808 810 812 814 816 818 820 821 823 824 826 828 829 830 832 833 834 836 837 838 840 841 842 843 844 845 846 847 848 849 850 851 852 852 853 853 854 855 855 855 856 856 856 856 857 856 857 857 857 857 857 857 858 858 857 857 857 857 857 857 856 856 857 857 857 858 858 858 858 858 859 859 859 860 861 861 861 862 863 864 865
797 800 802 804 806 808 810 813 815 816 818 820 822 823 825 827 828 829 831 832 833 835 836 838 839 840 841 842 843 844 846 847 848 849 850 851 851 852 852 853 853 854 854 855 855 855 856 856 856 856 856 856 857 857 857 857 857 857 857 857 857 857 857 856 856 856 856 856 857 858 858 858 858 859 859 859 859 860 860 860 861 861 863 864 865
795 797 799 802 805 807 809 811 813 815 817 819 820 822 824 825 827 828 830 831 832 834 835 837 838 839 841 842 843 844 845 846 848 849 849 850 850 851 851 852 853 853 854 854 854 855 855 856 856 855 856 856 856 856 857 857 857 857 857 857 857 857 857 856 856 856 856 856 857 858 858 858 859 859 859 859 860 860 860 860 861 861 862 862 864
793 795 797 800 803 805 807 809 811 813 815 817 819 820 822 824 825 827 828 830 831 833 834 835 837 838 840 841 842 843 844 846 847 848 848 849 849 850 850 851 852 852 853 853 854 854 855 855 855 855 855 855 856 856 856 857 857 857 857 857 857 857 857 856 856 856 856 856 857 858 858 858 859 859 859 860 860 860 860 860 861 861 861 862 862
791 793 795 798 801 803 805 807 809 811 813 816 817 819 821 822 824 826 827 829 830 831 833 834 836 837 838 839 841 842 843 845 846 847 847 848 848 849 849 850 851 851 852 852 853 854 854 855 855 855 855 855 855 856 856 856 856 856 857 857 857 857 857 857 856 856 856 857 857 858 858 858 859 859 859 860 860 860 860 860 860 861 861 862 862
789 791 794 796 799 801 804 806 808 810 812 814 816 818 820 822 823 825 826 827 829 830 832 833 834 836 837 838 840 841 842 843 845 846 846 847 847 848 848 849 850 850 851 852 852 853 853 854 854 854 855 855 855 855 855 855 856 856 856 856 857 857 857 857 857 857 857 857 858 858 858 859 859 859 859 860 860 860 860 860 860 861 861 861 862
788 790 793 795 797 800 802 804 807 808 811 813 815 818 819 821 822 823 825 826 827 829 830 831 832 834 835 837 838 840 841 842 843 844 845 846 846 847 847 848 849 850 850 851 851 852 852 853 853 853 854 854 854 855 855 855 855 855 856 856 856 857 857 857 857 857 857 858 858 859 859 859 859 859 859 859 860 860 860 860 860 860 861 861 861
786 788 791 794 796 798 800 802 804 806 809 812 814 816 818 819 821 822 823 824 825 827 828 829 831 832 834 836 837 838 840 841 842 843 844 844 845 846 846 847 848 849 850 850 850 851 852 852 852 853 853 853 854 854 855 855 855 855 855 856 856 857 857 857 857 857 858 858 858 859 859 859 859 859 860 859 860 860 860 860 860 860 860 860 861
784 787 789 791 793 795 798 799 802 805 807 808 810 812 814 816 817 818 819 821 823 825 826 827 829 830 832 834 836 837 838 839 840 841 842 843 844 845 845 846 847 848 849 849 850 850 851 851 851 852 852 852 853 854 854 854 855 855 855 856 856 856 857 857 857 857 858 858 858 859 859 860 860 860 860 860 860 860 860 860 860 860 860 860 861
781 784 785 788 790 792 794 796 799 802 803 805 807 809 810 812 814 815 817 820 821 822 824 825 827 829 831 833 834 836 837 838 839 840 840 841 842 843 844 845 846 847 848 848 849 849 850 850 851 851 852 852 853 853 854 854 854 855 855 856 857 857 856 856 857 857 857 858 858 859 859 860 860 860 860 860 860 860 860 860 860 860 860 860 861
777 780 782 784 788 790 792 794 796 798 800 802 804 805 807 810 812 814 816 818 819 821 822 824 826 828 829 831 833 834 835 836 837 838 839 840 841 842 843 844 845 846 847 847 848 848 849 850 850 851 851 851 852 853 853 854 854 855 856 857 858 858 858 857 857 857 857 857 858 859 860 860 860 860 861 861 861 861 861 861 860 860 860 861 861
775 776 778 781 783 785 787 790 792 794 797 799 801 803 806 809 811 813 815 817 819 820 822 823 824 826 827 828 830 831 833 834 835 836 837 838 839 841 842 843 844 845 845 846 847 847 848 849 849 850 851 851 851 852 853 853 854 854 856 858 858 859 860 858 857 857 857 857 857 858 860 860 860 861 861 861 861 861 861 861 861 861 861 861 861
771 772 774 776 778 780 782 785 788 790 793 795 798 802 805 808 810 813 815 816 818 819 819 820 821 822 824 825 827 829 831 832 833 834 835 837 838 839 841 842 843 844 844 845 846 846 847 848 849 849 850 850 851 852 852 853 853 854 855 857 858 860 860 858 857 858 857 857 857 858 859 860 860 861 861 862 862 862 861 861 861 862 862 862 862
766 767 769 771 773 776 779 782 785 787 790 792 796 800 802 805 807 809 811 813 814 814 814 815 817 819 821 823 825 827 829 830 831 832 834 835 837 838 839 840 841 842 843 844 845 846 846 847 848 848 849 850 850 851 851 852 853 853 854 855 856 857 857 856 858 859 858 857 858 858 859 860 860 861 861 862 862 862 862 862 862 862 862 862 862
760 762 765 768 771 774 777 779 782 784 787 790 793 797 799 801 803 805 807 808 809 809 811 814 816 818 820 822 824 826 827 828 829 831 832 834 835 837 838 839 840 841 842 843 843 844 845 846 847 847 848 849 850 850 851 852 852 852 853 854 854 855 854 855 857 858 859 859 858 858 859 859 860 861 861 862 862 862 862 862 862 863 863 863 863
754 758 762 764 767 770 773 776 779 781 784 788 790 793 795 797 799 801 804 805 806 807 810 813 815 817 819 821 822 824 825 826 828 829 831 832 834 835 836 837 838 839 840 841 842 843 844 845 846 846 847 848 849 850 850 851 851 852 853 853 854 854 854 854 854 855 857 859 859 859 859 859 860 860 861 861 862 862 863 863 863 863 864 864 864
750 754 756 758 762 765 769 772 775 778 781 784 787 789 791 793 796 799 801 802 804 807 810 812 814 816 817 819 821 822 823 825 826 827 829 831 832 833 835 835 836 838 839 840 841 842 843 844 844 845 846 847 848 849 850 850 851 851 852 853 853 854 854 854 854 854 855 858 860 859 858 859 860 860 860 861 862 862 863 863 864 864 864 864 864
748 750 751 754 758 761 765 768 771 774 777 780 783 785 788 790 793 795 797 799 802 805 808 809 812 813 815 817 818 820 821 823 824 826 827 829 830 832 833 834 835 836 838 838 839 840 841 842 843 844 845 846 847 848 849 850 850 851 852 852 853 853 853 853 854 855 855 856 858 858 857 858 859 859 860 861 861 862 863 863 864 864 864 864 864
748 750 751 753 756 758 761 764 766 769 772 775 778 780 783 786 788 790 792 795 798 802 804 806 808 810 812 814 816 818 819 821 822 824 826 827 828 830 830 832 833 835 836 837 838 839 840 841 842 843 844 845 846 847 848 849 849 850 851 851 852 852 853 853 853 854 855 855 856 857 857 857 858 859 860 861 861 862 862 863 863 864 864 864 864
Wind_Speed
19 19 20 22 21 20 22 23 24 23 22 22 24 26 26 26 26 26 27 27 27 26 25 24 23 22 21 21 20 19 18 17 16 15 15 15 14 14 14 14 14 14 14 14 13 12 10 10 10 10 10 9 9 8 8 8 8 8 9 9 9 9 9 9 8 9 9 9 10 10 12 12 13 13 13 12 13 13 14 14 14 15 15 14 13
22 21 21 22 22 20 22 23 24 23 22 23 24 25 25 26 26 27 27 27 26 26 24 23 22 22 22 20 19 19 18 16 16 15 14 14 14 13 13 13 14 13 13 14 13 11 10 10 11 10 9 8 8 7 7 7 8 8 8 9 9 9 9 9 9 9 9 9 11 11 12 12 13 13 12 12 13 13 14 14 14 15 15 13 13
23 22 22 23 22 21 22 24 24 24 23 24 25 25 26 26 27 27 26 26 25 24 23 23 23 22 21 20 19 18 17 16 15 15 14 13 13 12 12 13 13 13 13 13 12 10 10 11 11 10 9 8 7 6 7 7 7 8 8 8 8 8 8 8 8 9 9 9 11 11 12 13 13 13 12 12 13 13 14 14 14 15 14 13 13
24 24 24 23 23 22 23 25 24 24 24 25 25 25 25 26 26 26 25 25 24 24 22 22 22 22 21 19 18 17 16 15 15 14 13 12 12 11 11 11 12 12 12 13 11 9 9 10 10 9 8 7 7 6 6 7 7 7 7 7 8 8 8 8 7 8 9 8 9 10 11 12 12 13 12 13 13 13 13 14 14 14 14 13 13
25 24 25 24 23 22 22 24 24 25 25 25 25 25 25 26 26 25 24 24 23 22 21 22 21 21 19 18 17 16 15 15 14 13 12 11 11 10 10 10 11 11 11 12 10 8 8 10 9 8 7 6 6 6 6 6 7 7 7 7 7 7 7 7 6 6 7 8 9 9 10 10 11 13 12 12 12 12 13 13 13 14 13 13 13
26 26 26 25 23 23 22 23 25 25 25 25 25 25 25 25 24 24 23 23 22 22 21 21 20 19 18 17 16 16 15 14 13 12 11 10 10 10 10 10 10 10 10 10 9 7 8 9 7 6 6 5 5 5 6 6 6 7 7 6 6 6 6 6 6 6 6 8 10 10 10 10 11 13 11 11 11 12 13 12 13 14 13 13 13
27 27 26 25 25 24 23 23 24 25 24 25 25 24 24 24 23 23 22 22 22 21 21 21 20 19 17 16 16 15 14 13 12 11 10 9 9 9 9 9 9 9 9 8 8 7 7 8 6 5 5 5 5 5 5 5 6 6 6 7 6 5 5 5 5 5 6 8 10 10 10 10 11 12 11 11 11 12 13 12 13 13 13 13 13
27 27 26 25 25 24 23 22 23 24 24 24 24 24 23 23 22 22 21 21 21 20 20 19 18 17 16 16 15 14 13 12 11 10 9 9 8 8 8 8 8 8 7 7 6 5 6 7 5 4 5 6 5 5 6 6 6 5 5 6 6 4 4 5 5 5 6 8 10 10 9 10 11 11 11 12 12 12 13 12 12 12 12 13 13
28 27 26 25 24 24 23 22 23 23 23 24 24 23 23 22 22 21 21 20 20 20 19 18 17 16 15 14 14 13 12 11 10 9 9 8 7 7 7 7 7 7 6 5 5 4 5 5 4 4 4 5 5 5 6 6 6 5 5 6 6 5 4 4 5 5 6 8 9 10 9 9 11 12 11 12 13 12 12 12 12 11 11 12 12
29 27 27 25 24 24 22 22 22 23 23 23 24 24 23 22 21 20 20 20 19 18 18 17 16 15 14 13 13 12 11 10 9 9 8 7 7 6 6 6 6 6 5 5 4 4 3 4 4 4 4 4 4 5 5 5 5 4 4 5 5 5 5 5 6 5 6 7 8 9 8 9 11 12 11 12 12 12 11 12 12 11 11 11 11
29 27 27 25 25 24 22 22 22 22 23 23 23 23 22 21 21 20 19 19 18 17 17 16 15 14 13 13 12 11 10 10 9 8 7 7 6 7 7 7 6 6 6 5 5 4 3 3 3 4 4 4 3 4 4 4 4 3 3 4 5 6 5 6 6 6 6 7 7 8 8 9 10 11 12 12 12 11 11 11 12 12 11 11 11
29 28 27 27 25 23 22 22 22 22 22 22 22 22 21 21 20 19 18 18 17 17 16 15 14 13 12 11 11 10 9 9 8 7 7 6 6 7 7 6 6 6 6 6 6 5 4 5 4 4 3 3 3 3 3 3 4 3 3 3 5 6 6 5 6 6 6 6 7 7 8 8 9 10 11 12 12 11 11 12 12 12 11 11 12
29 29 27 27 25 23 23 22 22 22 22 22 22 22 20 20 19 18 18 17 17 16 15 14 13 12 11 10 10 9 9 8 7 7 6 6 6 6 6 5 5 6 6 7 7 6 6 6 5 4 4 3 2 2 2 2 4 3 3 3 4 5 5 5 5 6 5 5 5 6 8 8 8 9 10 11 11 10 10 12 12 11 11 11 12
29 29 28 27 25 24 23 22 22 21 22 22 21 21 20 19 18 18 17 17 16 15 14 13 12 11 11 10 9 8 8 7 6 6 6 6 6 6 5 5 5 6 6 7 8 7 7 7 6 5 5 4 3 3 2 2 3 3 2 3 4 4 5 5 4 5 5 4 4 5 7 8 8 8 9 10 10 10 10 11 11 11 11 11 11
30 29 28 26 24 24 23 22 22 22 22 21 20 20 19 18 18 17 16 16 15 14 14 13 12 11 10 9 8 8 7 6 5 4 5 5 5 5 5 5 5 6 6 6 8 7 7 6 6 6 6 5 4 3 2 2 1 2 3 3 3 4 5 5 5 5 5 4 4 5 6 7 7 7 8 9 9 9 9 9 10 10 10 10 10
30 29 28 26 24 24 24 22 22 22 21 20 20 19 18 18 17 17 16 15 14 14 13 12 12 11 10 9 8 7 6 6 5 4 4 4 4 4 4 5 6 6 5 5 6 7 6 6 5 5 5 5 5 3 3 2 1 2 3 3 3 3 4 5 5 6 6 5 5 5 6 6 6 6 6 8 8 8 9 9 9 9 10 10 10
28 28 27 26 24 24 24 23 22 21 21 21 20 19 18 17 17 16 16 15 14 14 13 12 12 11 10 9 8 7 6 5 5 4 3 3 3 3 4 6 6 5 5 5 5 6 6 6 5 5 5 5 5 4 3 3 2 2 2 2 2 2 3 4 5 6 6 5 5 6 7 7 7 6 6 7 7 8 8 8 8 9 9 9 9
27 27 27 26 24 24 25 23 22 22 21 20 20 19 18 17 17 16 16 15 14 14 13 12 11 11 10 9 8 7 6 5 4 4 3 3 2 2 3 4 5 5 4 4 5 5 6 6 5 5 5 5 5 4 4 3 3 2 1 2 3 2 2 2 4 6 6 5 4 5 7 7 7 7 7 7 7 7 8 8 8 8 9 9 8
27 27 27 26 24 23 24 24 23 22 22 21 20 19 18 17 17 16 16 15 15 14 13 12 11 11 10 9 8 7 6 5 4 3 3 2 1 1 2 3 3 4 3 3 4 5 6 6 5 5 5 5 5 4 4 4 3 1 0 1 3 2 2 2 4 5 6 6 3 4 6 7 7 7 7 8 8 8 8 8 8 8 9 9 9
26 27 26 27 25 23 23 24 23 23 22 21 20 19 18 17 17 17 17 16 15 14 13 12 11 11 10 9 8 7 6 5 4 3 3 2 2 1 1 2 2 3 2 2 3 4 5 5 5 4 4 4 4 4 3 3 2 1 1 1 2 2 2 2 3 4 5 6 4 4 6 7 7 7 7 8 8 8 8 8 8 8 9 9 9
25 26 26 27 26 23 23 24 23 23 23 22 21 20 18 18 18 18 17 16 15 13 12 11 11 11 10 9 8 8 7 6 6 5 4 3 3 2 1 1 2 2 1 1 2 3 4 4 4 3 2 2 2 2 2 2 1 2 3 2 1 0 1 3 3 4 6 6 5 5 7 8 8 7 8 8 8 8 7 7 7 8 9 9 9
24 25 26 27 26 24 24 24 24 23 23 22 21 21 19 18 18 18 18 17 15 14 13 11 11 11 10 10 10 9 8 8 7 6 5 4 4 3 1 0 1 2 2 2 2 2 2 3 3 2 2 2 1 1 1 2 2 2 2 1 0 1 2 4 4 4 6 6 6 6 7 8 8 7 7 8 8 8 8 7 7 7 8 9 9
25 26 26 27 27 26 25 25 24 24 24 23 22 21 20 19 19 19 18 17 16 15 13 12 12 12 11 11 11 10 10 9 8 7 6 5 4 3 1 1 2 3 3 3 3 2 2 2 3 2 2 2 1 1 0 1 2 2 2 2 1 1 3 4 5 5 6 6 7 6 7 8 8 8 8 8 8 8 8 8 8 7 8 8 9
26 27 27 27 27 27 26 25 25 25 24 23 22 22 21 20 20 20 19 18 17 15 14 13 13 13 13 12 12 12 11 10 9 7 6 6 5 4 2 1 2 4 4 4 4 3 3 3 3 3 2 2 2 2 1 1 2 2 2 2 1 1 2 3 4 5 6 6 7 7 7 8 9 8 8 8 8 8 9 9 8 8 8 8 9
25 25 27 27 27 27 27 26 26 26 25 24 24 23 23 21 21 21 19 19 18 17 16 15 15 14 14 13 13 13 12 10 9 9 8 7 6 5 4 2 3 4 5 5 4 4 4 4 4 3 2 2 1 1 1 1 1 1 2 1 1 1 2 2 3 5 6 7 7 7 7 8 9 9 8 9 9 9 9 9 9 9 8 8 8
24 25 26 27 28 27 28 27 26 26 26 26 25 24 24 23 22 22 20 19 19 18 17 16 16 15 14 14 14 13 12 11 10 10 10 9 8 7 5 3 3 4 4 5 5 4 5 5 4 3 3 3 2 1 0 1 0 1 2 2 2 2 3 3 3 3 6 7 7 7 7 8 9 9 9 10 10 10 9 9 9 10 9 9 9
25 25 26 27 28 28 28 28 27 26 26 26 26 25 25 24 23 22 22 20 19 19 18 17 17 16 15 15 15 14 13 12 12 12 11 10 9 8 6 5 5 4 4 5 5 5 5 5 4 3 3 3 2 1 1 1 1 3 4 4 4 4 4 4 3 3 5 7 7 7 7 7 9 10 10 10 11 10 10 10 10 10 10 10 10
25 25 26 27 28 28 28 28 27 26 27 27 27 27 26 25 24 23 23 21 20 20 19 18 17 17 16 16 15 14 14 13 14 13 12 11 10 8 7 6 6 5 5 6 7 6 6 5 5 4 3 3 2 2 2 2 2 4 4 4 4 4 4 4 4 4 5 6 7 8 8 8 8 9 10 11 11 11 10 10 10 10 10 10 10
26 27 27 27 29 29 29 28 27 27 27 28 28 28 27 26 25 24 24 23 22 21 20 19 18 18 17 16 16 15 15 15 15 13 12 11 9 9 8 7 6 6 6 8 8 7 7 7 6 5 4 3 3 4 4 3 4 4 3 3 3 3 3 4 5 5 5 6 7 7 8 7 8 9 10 11 11 11 11 10 10 10 10 10 10
28 28 28 29 29 29 30 29 28 28 28 28 28 29 28 27 27 26 25 24 23 22 21 20 19 19 18 17 17 16 16 16 15 13 12 11 9 9 9 8 7 7 7 9 9 9 8 8 7 6 6 4 4 6 5 4 5 4 3 4 4 2 2 2 4 6 6 6 6 6 6 6 7 8 9 11 11 10 11 10 10 11 12 11 10
28 28 29 29 29 30 31 31 30 29 29 29 29 29 29 28 28 27 26 25 24 23 22 21 20 20 19 18 18 17 17 17 15 14 12 11 10 10 9 9 8 8 9 10 10 10 10 9 7 6 7 6 5 7 5 4 4 2 2 3 3 3 3 3 3 5 6 6 6 5 5 5 6 7 8 9 9 9 10 10 11 12 12 12 11
29 30 30 30 29 30 31 31 31 29 29 30 29 29 29 29 28 28 26 25 24 24 23 22 22 21 20 19 19 18 18 18 16 14 13 11 10 10 10 10 10 8 9 11 10 11 11 9 8 7 8 8 7 6 4 4 4 3 1 2 2 3 4 3 3 4 6 6 7 6 5 4 5 6 6 8 8 9 10 10 11 12 12 12 11
31 31 30 30 30 31 31 31 31 30 30 30 30 29 30 29 29 28 27 25 25 25 24 23 22 21 21 20 20 19 19 18 17 15 13 12 11 11 11 12 11 9 10 11 11 12 12 10 9 9 9 9 8 5 4 4 5 3 2 3 2 2 2 4 5 4 6 8 8 7 6 5 5 5 5 6 7 7 8 9 10 12 13 12 11
31 31 30 31 31 30 31 31 31 31 31 30 30 30 30 30 29 29 28 27 26 25 25 24 23 22 21 21 21 20 20 19 17 15 13 12 12 12 12 13 12 11 11 11 12 13 13 10 10 10 9 10 9 7 5 4 6 4 2 2 2 1 1 4 5 4 5 9 9 8 7 6 5 5 5 5 5 5 6 7 8 10 11 12 12
30 31 33 33 31 30 30 31 31 32 31 31 31 31 30 30 30 30 29 28 27 26 26 25 24 23 22 22 22 21 21 19 17 15 14 13 13 13 13 13 13 13 13 12 13 13 12 11 11 11 10 10 9 7 6 5 6 4 3 3 1 2 1 2 3 3 3 8 9 8 8 7 6 6 6 4 4 5 5 5 7 7 7 10 11
32 33 34 33 31 31 31 31 32 33 33 32 32 31 31 31 31 30 30 29 28 27 27 26 25 24 23 23 23 22 21 20 18 16 15 14 14 14 14 14 14 14 13 13 14 14 13 12 12 12 11 11 9 7 6 6 6 6 4 2 2 2 2 2 1 2 2 8 9 7 7 7 7 7 6 5 4 4 4 5 5 6 6 8 9
33 34 34 33 32 32 31 31 32 33 33 33 32 31 31 31 31 30 30 29 29 28 27 26 26 25 24 24 23 23 21 20 18 17 17 16 15 15 15 15 15 14 14 14 14 14 13 13 12 13 12 11 9 7 6 5 6 7 4 3 3 2 2 0 0 1 3 7 7 6 7 7 8 8 7 6 5 4 4 5 5 5 6 6 6
33 33 34 34 34 33 32 31 31 32 33 33 32 31 31 30 30 30 29 29 29 28 27 26 26 25 25 24 23 22 21 20 19 18 18 17 16 16 16 16 15 15 14 14 14 14 14 14 13 13 12 11 11 8 7 5 5 6 5 3 3 2 2 1 1 2 4 7 7 7 7 7 8 8 8 7 6 5 5 5 6 6 6 5 5
33 32 32 33 33 33 32 31 31 31 32 32 31 30 29 28 28 28 28 28 28 28 27 27 26 26 25 24 22 22 21 20 19 19 19 19 19 18 17 17 16 16 15 14 14 14 14 14 14 13 12 12 11 9 7 7 5 5 5 3 3 3 3 2 3 5 6 7 8 8 7 6 7 7 7 7 7 6 5 5 6 6 6 6 6
32 32 32 32 32 32 32 31 32 31 31 31 31 30 28 27 27 27 27 28 28 28 28 28 27 26 25 24 23 22 21 20 20 19 20 20 20 20 18 18 18 17 16 16 15 15 14 15 14 13 13 12 11 9 8 7 6 5 5 4 3 4 4 2 3 7 9 9 8 8 7 6 5 5 5 6 6 6 5 6 6 6 6 6 7
31 31 32 32 33 33 33 33 32 31 31 32 32 31 30 29 28 28 28 28 28 28 28 29 28 27 26 25 24 23 21 21 20 20 20 21 22 21 20 19 19 18 18 17 16 15 15 14 13 13 13 13 12 9 8 7 5 5 5 5 3 2 4 3 3 7 10 10 9 9 7 6 5 4 4 4 4 4 4 5 5 5 5 5 6
31 33 34 34 34 34 34 34 33 32 33 34 33 33 33 32 31 30 29 29 29 29 29 29 29 27 26 25 24 23 22 21 21 21 21 22 22 22 21 20 20 19 19 18 16 16 15 14 13 13 13 13 11 9 9 7 5 4 3 3 1 1 3 4 5 8 10 11 11 11 9 7 6 4 3 2 2 2 3 3 2 2 3 3 4
33 35 36 35 35 35 35 34 34 34 34 35 35 35 35 34 32 30 29 29 29 30 29 28 28 27 26 25 25 24 23 22 22 22 22 23 23 23 22 21 20 19 19 19 18 17 15 13 12 13 13 13 12 10 10 8 5 4 2 1 1 1 1 3 5 8 10 12 13 14 12 9 8 6 4 2 2 2 1 1 1 2 1 2 2
33 34 35 35 36 37 38 37 37 37 36 37 37 36 35 33 31 29 28 27 27 27 27 27 28 27 27 27 26 25 24 22 21 21 23 23 22 23 22 22 21 20 20 20 19 18 16 14 13 13 13 13 12 11 10 10 8 5 3 1 0 1 0 1 3 6 9 11 13 15 14 12 9 7 5 3 3 2 1 0 1 2 2 2 2
33 35 37 38 39 40 41 40 39 38 38 38 37 35 33 31 29 26 24 24 24 24 25 27 28 28 28 28 28 26 25 23 22 22 23 23 22 22 22 22 22 21 20 20 19 18 16 15 14 14 15 14 13 12 11 11 9 8 5 2 1 0 1 1 2 2 4 7 11 14 15 13 11 8 6 5 4 3 2 1 1 2 2 3 3
35 37 39 41 41 41 41 40 39 38 39 38 37 35 33 32 29 27 25 24 24 25 28 28 29 30 30 29 28 27 26 25 24 23 23 23 23 22 22 22 22 21 21 20 19 18 17 15 15 15 16 15 14 12 12 11 10 10 10 7 4 3 2 3 2 0 1 3 7 12 14 14 12 10 9 7 6 4 3 3 2 2 3 3 3
38 39 39 40 40 39 39 40 39 38 38 38 37 36 35 34 33 32 31 28 27 29 30 28 28 30 30 29 28 27 27 26 26 25 24 24 23 23 22 22 22 21 21 20 19 18 16 15 14 15 16 16 14 13 13 12 10 10 11 11 9 7 5 5 3 1 1 1 4 9 12 13 13 12 11 10 8 6 4 4 3 3 3 3 3
41 40 39 40 40 40 39 40 40 38 38 38 38 38 38 36 35 34 32 31 31 30 28 26 26 27 28 29 29 28 28 28 27 26 25 24 24 23 23 22 22 22 21 20 19 17 16 14 14 15 16 16 14 14 13 12 11 10 9 10 9 7 7 7 5 4 3 1 2 5 9 12 13 14 13 12 11 9 6 5 4 3 3 3 2
41 40 41 42 42 42 41 40 40 39 38 38 39 40 40 38 36 35 33 32 32 30 26 24 25 25 27 29 29 29 29 29 28 27 26 25 25 24 23 23 22 22 21 20 18 17 16 15 15 16 17 16 15 14 13 13 12 11 9 9 8 6 6 6 6 5 3 2 2 2 6 9 11 15 16 14 13 11 9 7 6 4 4 3 2
39 40 42 42 41 42 41 40 41 41 40 40 41 42 42 39 37 36 35 34 32 29 26 25 24 25 26 28 29 30 30 30 29 28 26 25 25 24 24 24 23 22 21 20 19 18 16 16 16 17 18 17 16 15 14 13 12 13 12 10 9 8 6 3 5 5 3 2 2 2 7 9 8 12 16 16 14 13 11 9 7 5 5 5 4
34 36 37 37 38 39 39 41 42 42 41 41 42 43 43 41 40 39 38 37 33 29 28 27 26 26 27 28 29 30 31 31 30 28 27 26 25 25 25 24 23 22 21 20 20 18 17 17 17 18 18 17 16 16 15 14 13 13 14 13 12 10 9 6 5 7 5 3 3 3 7 10 9 11 14 15 16 14 13 12 10 8 6 6 6
Wind_Direction
146 135 130 128 130 130 129 128 127 130 132 133 129 125 127 126 127 129 130 130 130 130 130 128 126 125 124 123 121 119 116 115 115 114 110 108 105 102 100 98 96 93 92 91 90 91 93 95 97 98 98 97 97 97 98 98 98 99 100 98 96 96 95 94 92 90 88 94 105 112 114 114 111 107 107 108 106 106 107 108 106 103 99 100 102
147 138 134 130 130 132 131 129 128 127 128 130 126 124 125 126 128 129 129 129 130 130 129 127 126 126 125 123 120 117 116 115 113 111 108 106 103 102 100 98 96 94 93 91 92 93 94 93 92 93 95 97 101 104 107 105 102 101 102 103 103 100 100 99 96 94 90 94 103 108 113 113 112 112 112 111 109 109 110 109 108 105 103 106 107
144 140 136 131 131 133 132 129 128 125 125 127 127 125 125 128 130 129 129 129 129 129 128 128 129 127 125 122 119 118 117 114 111 109 107 104 102 100 98 96 95 94 93 93 94 98 100 98 94 93 96 99 103 106 111 110 106 102 104 107 107 105 104 104 102 102 97 95 100 107 116 115 116 117 115 114 111 111 111 111 110 108 107 110 110
145 141 136 134 134 134 133 130 129 126 125 127 127 125 127 130 131 130 130 129 129 129 129 130 129 127 125 124 120 119 117 113 110 108 106 103 101 99 97 95 93 92 92 92 93 95 96 97 99 99 99 99 101 104 110 115 113 107 110 114 112 109 107 106 103 104 104 103 102 108 114 114 118 118 118 117 113 113 113 113 112 110 111 112 113
147 142 139 137 135 135 133 131 130 129 128 128 127 127 130 132 132 131 130 130 130 130 130 130 128 127 126 125 122 120 117 114 111 108 106 104 103 99 95 92 90 89 88 91 92 92 90 94 100 104 107 109 109 109 114 120 120 117 116 121 120 115 110 107 103 105 111 115 115 115 116 115 120 120 120 118 116 116 114 115 115 114 114 114 115
148 144 142 140 138 137 134 133 131 132 132 131 130 130 132 133 132 131 132 132 132 133 131 130 129 128 127 126 124 121 118 115 112 110 107 104 102 97 94 91 88 87 85 89 92 92 89 92 96 104 111 111 108 103 109 122 127 127 124 124 125 123 117 112 107 112 121 123 121 120 121 124 125 124 126 124 119 117 115 115 117 117 117 117 118
148 147 145 142 141 138 137 135 134 135 134 134 133 132 133 133 133 133 134 134 134 134 132 131 130 130 128 127 125 123 120 116 113 110 108 103 98 95 94 92 89 86 85 86 88 89 88 88 91 99 104 101 96 88 92 111 122 126 136 135 131 133 129 125 114 117 129 126 122 121 125 130 129 129 135 132 122 120 116 115 116 118 121 122 122
151 149 147 144 141 140 140 137 136 137 137 137 135 134 134 134 134 135 136 136 136 134 133 132 132 131 130 129 127 125 121 117 115 111 108 103 98 95 94 92 89 85 84 86 85 86 89 91 91 86 87 91 95 87 79 91 111 126 145 144 137 143 143 136 126 125 133 129 124 124 127 131 133 136 139 135 127 124 119 117 118 120 125 126 127
155 151 149 146 143 143 143 141 139 138 139 138 137 137 136 136 137 137 138 139 138 136 135 135 134 132 131 130 129 127 123 118 116 113 109 103 98 94 90 87 84 82 83 87 88 86 90 96 98 86 77 79 86 88 83 87 111 136 145 144 142 147 150 144 139 136 136 133 128 126 129 130 136 142 141 136 131 127 124 122 121 121 124 127 131
157 153 151 148 147 148 146 144 141 141 141 141 141 140 139 139 140 140 141 142 141 139 137 136 135 134 133 132 132 130 126 121 118 113 109 104 96 87 82 81 81 83 86 89 92 90 90 98 100 93 83 75 80 86 90 91 102 129 140 143 145 148 152 153 153 147 139 137 132 126 127 133 140 144 143 139 134 132 131 128 123 121 120 123 128
160 156 153 152 152 151 149 147 144 145 145 144 144 143 142 142 142 143 144 144 143 141 140 138 136 135 135 134 135 133 130 125 118 113 108 101 90 81 78 78 82 87 91 93 92 88 88 96 100 103 95 84 89 83 84 93 88 100 129 145 147 150 154 159 163 152 136 136 136 129 129 138 143 145 146 146 141 137 137 132 127 123 121 120 119
161 160 157 155 154 153 152 150 148 149 149 149 147 146 145 145 146 146 147 147 145 144 142 140 139 137 137 137 138 137 135 129 120 115 108 97 85 79 78 79 85 89 91 91 89 85 84 91 93 102 109 104 99 82 77 87 80 83 114 145 151 153 158 161 167 157 136 133 141 137 135 141 143 145 148 149 145 144 145 138 130 127 125 121 118
162 162 160 158 156 156 155 153 152 153 154 153 151 149 148 149 150 150 150 149 147 147 145 144 142 140 141 141 140 139 139 133 124 119 110 97 83 79 82 83 87 87 87 89 89 84 84 92 92 93 103 118 119 100 81 72 76 82 112 148 153 157 161 160 168 163 144 136 144 143 139 144 148 148 150 153 152 153 149 139 133 130 130 127 123
163 164 163 161 160 159 158 157 157 157 158 157 156 154 154 155 154 154 153 152 150 149 149 149 147 145 146 145 143 142 143 138 132 125 116 101 83 78 84 85 84 82 83 90 94 90 88 91 90 90 92 110 129 119 100 63 76 94 127 154 156 165 169 164 165 166 159 149 146 147 145 149 156 154 153 157 159 157 149 139 136 134 133 132 128
164 166 165 164 162 160 160 161 161 161 161 161 161 160 160 161 158 157 157 155 153 152 153 153 152 152 151 149 148 147 147 146 144 135 123 108 86 76 79 77 75 75 78 87 94 94 93 93 90 90 89 98 111 117 116 99 92 111 131 147 154 170 176 171 161 160 166 163 153 154 154 155 159 158 157 159 162 157 148 142 140 138 136 135 131
166 167 167 166 165 163 162 164 165 164 165 166 166 166 167 166 163 161 160 159 157 157 158 158 159 158 157 156 154 154 153 153 155 148 128 114 91 75 72 66 64 67 73 78 87 91 91 94 94 93 93 95 97 105 109 109 113 94 115 137 157 174 178 179 169 161 163 162 157 158 159 161 159 161 159 157 162 155 148 149 147 144 139 138 135
168 168 168 167 168 166 164 167 168 168 170 171 172 172 174 172 169 167 165 164 163 164 164 164 165 164 165 163 161 162 161 163 166 163 137 122 107 80 69 56 51 55 64 71 81 89 89 88 88 90 93 94 96 98 98 105 94 66 95 141 157 180 177 184 181 171 169 164 160 161 162 164 162 161 158 154 159 155 150 154 152 149 143 141 139
170 171 170 169 170 169 167 168 170 172 173 175 177 178 180 178 176 173 170 170 171 171 170 169 171 173 174 171 170 171 170 178 179 175 157 140 136 96 75 56 44 45 53 66 80 91 94 92 87 81 81 86 91 91 94 105 95 72 121 153 145 180 194 196 198 186 182 175 170 170 167 167 164 160 158 157 159 154 154 158 156 157 152 147 143
172 174 174 174 173 170 169 170 172 175 176 177 179 181 183 183 181 179 177 177 177 177 175 175 178 181 181 180 180 178 179 190 193 190 183 166 168 126 84 66 46 43 45 58 80 98 105 105 96 80 67 72 78 79 81 93 102 98 292 124 136 172 206 223 221 209 197 188 189 186 176 172 167 163 161 161 162 159 159 160 162 164 161 153 149
175 177 178 178 177 173 171 173 174 176 179 179 180 182 184 186 185 183 182 182 182 182 181 182 184 186 187 187 189 188 189 199 205 213 210 217 241 241 75 74 54 44 45 57 81 104 117 119 114 98 68 60 62 65 58 77 101 97 78 93 133 164 199 232 232 226 212 199 204 201 187 181 174 171 169 165 166 169 164 162 164 166 165 159 154
178 181 182 181 180 177 176 177 176 177 181 181 181 182 184 188 188 187 187 185 185 187 188 189 190 190 193 196 198 199 201 206 211 217 217 229 242 244 281 56 70 72 76 86 99 108 121 129 130 126 112 90 68 58 36 45 58 53 71 99 159 187 209 224 229 231 224 213 216 207 194 191 183 179 177 173 176 175 167 164 165 167 168 165 158
179 183 185 185 184 182 181 181 181 180 183 183 184 184 184 188 190 189 189 189 189 192 194 195 195 194 198 203 206 209 210 214 217 218 219 228 239 247 265 44 94 122 125 125 127 123 130 143 147 153 164 170 141 107 26 25 31 30 45 49 247 260 247 232 228 230 227 223 225 210 197 198 191 187 184 181 185 180 170 169 170 172 173 169 163
180 184 187 188 188 187 186 185 185 185 186 188 189 189 188 190 192 193 193 194 194 197 200 199 201 199 202 207 211 216 217 219 221 221 226 231 233 237 235 142 138 154 152 155 157 157 166 171 172 181 183 188 180 154 101 30 45 40 27 12 332 268 258 242 236 235 230 224 222 213 202 201 198 194 191 190 192 185 179 177 176 178 176 173 170
181 184 187 189 191 191 190 189 189 189 191 193 194 193 191 193 194 195 196 198 198 201 204 204 205 204 207 211 214 221 223 221 221 223 227 225 215 209 210 186 173 171 169 173 179 185 192 192 192 191 181 174 166 131 108 84 71 63 57 34 357 305 285 262 247 239 232 227 221 216 209 205 203 200 199 199 196 191 186 183 182 183 180 180 177
181 184 187 189 192 193 193 193 193 193 194 197 197 195 194 195 196 197 198 200 202 204 206 208 209 209 212 215 218 224 226 222 222 223 221 218 212 208 208 207 190 184 185 187 192 198 195 197 201 201 197 183 172 128 95 84 87 67 50 24 351 327 310 292 269 244 231 230 226 221 217 212 207 203 205 205 203 199 193 188 188 190 187 186 185
182 185 188 190 192 194 195 194 195 196 197 199 198 196 196 197 197 199 201 202 204 206 208 210 212 214 216 220 223 225 226 223 224 224 220 221 221 219 216 219 217 201 202 205 205 206 200 204 210 211 215 209 212 216 88 94 115 309 309 296 289 285 286 285 283 263 233 228 229 226 223 221 216 210 209 208 207 204 200 196 195 195 194 192 191
184 187 189 191 194 195 196 196 197 198 199 201 200 198 199 200 200 201 204 205 207 209 211 213 215 218 221 224 225 224 225 224 225 226 223 225 227 227 226 230 232 222 225 227 219 217 218 223 230 230 230 224 221 261 309 295 246 265 275 277 275 274 273 268 272 270 244 227 226 227 226 226 223 219 218 215 211 208 205 204 202 203 201 196 196
185 189 191 192 195 196 197 197 198 199 200 201 202 202 202 203 203 204 207 208 211 213 214 217 219 221 224 225 226 225 226 227 228 228 227 229 230 229 233 239 241 239 242 242 233 228 232 240 247 252 251 244 245 300 320 308 278 273 274 273 265 269 271 260 251 249 245 233 227 228 229 229 227 225 225 225 218 210 209 209 208 211 210 205 202
189 190 192 193 196 197 197 199 199 200 201 202 203 205 205 205 206 207 209 211 214 216 217 220 222 223 225 225 226 227 228 230 230 229 230 232 231 232 237 243 245 246 245 241 235 232 237 244 250 256 261 267 285 314 319 297 284 275 262 260 256 267 280 262 239 228 232 234 233 231 232 235 233 231 229 232 227 213 211 211 211 214 218 215 209
193 192 194 195 197 198 199 201 201 202 202 202 204 206 207 208 209 211 212 214 217 219 220 223 225 225 226 225 227 229 231 233 234 232 234 236 235 237 239 243 246 246 245 238 232 236 239 245 251 255 262 269 282 302 304 286 281 258 220 242 255 257 290 288 244 226 226 228 234 236 238 243 242 242 234 234 234 222 217 214 212 216 218 217 214
194 194 196 198 198 199 201 203 203 203 203 204 206 207 209 210 212 214 215 217 219 221 222 225 227 227 226 226 228 230 233 235 235 235 239 243 243 243 243 246 247 245 244 236 231 238 241 247 252 254 262 267 281 294 286 261 255 219 202 252 267 254 259 285 251 224 226 226 230 233 240 250 249 251 244 238 237 231 227 222 217 220 220 219 216
195 196 198 198 199 201 203 204 204 204 205 206 207 209 211 213 215 216 217 219 222 223 225 226 228 228 227 228 229 231 235 236 236 237 242 248 250 251 249 248 248 245 244 238 235 239 243 249 252 259 268 275 289 290 268 235 211 190 221 249 244 242 251 267 258 226 220 219 221 223 232 250 255 254 251 245 241 233 229 226 224 226 227 225 221
197 198 198 199 200 202 203 205 206 206 208 208 209 211 213 215 217 219 220 222 224 226 227 228 229 230 229 229 231 232 236 237 236 238 243 250 254 255 253 251 249 246 244 240 238 239 243 249 255 264 269 276 287 279 265 240 208 208 239 225 198 213 253 265 268 250 221 215 216 217 222 239 254 255 251 246 243 237 228 225 228 228 229 233 228
196 197 199 201 201 202 204 206 207 209 210 211 212 214 215 217 219 221 223 224 226 229 230 231 231 231 231 231 232 233 236 237 237 239 244 250 254 256 255 252 248 246 243 240 241 240 243 250 258 263 265 274 282 272 269 242 214 219 209 192 184 199 276 268 260 262 231 212 206 210 218 230 243 253 257 251 244 244 235 226 227 226 226 236 235
195 197 200 202 202 203 204 206 208 210 212 213 214 216 218 219 221 223 225 227 229 231 232 233 233 232 232 232 233 235 237 237 237 239 244 249 253 255 254 250 246 244 242 243 244 244 245 251 259 265 270 275 278 273 265 239 222 221 173 156 155 188 290 312 259 270 241 200 192 202 216 229 237 246 256 255 244 241 237 228 228 229 225 233 236
196 198 200 201 202 204 205 207 209 211 212 215 216 217 220 221 223 225 226 229 230 232 234 234 234 234 234 235 234 236 237 236 236 238 243 247 251 253 251 248 245 243 246 249 248 247 248 252 260 266 274 275 274 273 259 244 233 220 183 154 155 201 256 341 303 291 213 181 182 200 218 233 239 242 249 249 241 232 233 228 230 240 234 231 234
197 199 199 200 201 203 206 208 209 212 213 215 216 218 220 223 225 226 228 230 231 233 234 235 236 236 236 236 236 236 236 235 235 237 241 244 248 250 248 246 246 247 251 254 252 250 249 253 260 265 274 274 269 265 253 249 236 217 197 156 145 188 239 60 229 260 181 177 185 204 223 239 242 242 244 244 242 232 229 228 228 242 242 237 237
199 200 199 200 201 203 205 208 209 212 213 214 215 217 220 223 226 228 229 231 233 235 235 236 237 237 237 236 235 234 234 236 238 239 240 241 244 246 247 246 246 250 252 254 253 251 249 254 259 263 269 270 266 262 247 239 226 208 197 169 158 185 221 172 180 202 189 190 196 203 217 235 240 243 244 246 249 241 233 230 232 240 246 246 245
199 200 201 201 202 203 205 207 209 211 213 214 215 216 219 222 225 228 229 231 234 235 236 237 237 236 235 233 233 234 235 239 241 242 241 239 241 242 244 245 247 250 250 252 252 249 250 253 257 260 263 264 266 263 242 232 223 211 204 190 185 201 224 231 198 197 195 197 199 200 205 217 229 239 247 251 250 246 241 239 244 248 249 249 247
199 199 200 201 201 202 203 206 209 210 211 211 212 213 215 218 221 225 227 229 232 235 236 236 236 235 233 233 234 235 237 241 242 243 242 239 240 241 243 244 246 248 248 251 252 252 254 256 257 259 257 259 263 255 236 231 226 219 211 208 206 205 226 242 203 198 195 195 201 202 199 204 215 226 241 248 245 246 246 246 254 255 251 249 243
198 198 199 201 202 202 203 205 207 208 208 208 209 210 211 213 216 219 223 226 228 232 234 234 234 233 233 234 236 237 239 242 244 244 243 241 241 242 242 243 245 247 249 252 254 256 258 258 258 258 256 258 261 246 228 227 218 211 209 212 218 211 219 228 209 205 202 204 208 207 203 206 214 215 223 234 240 247 248 252 261 259 255 250 243
197 198 200 202 203 203 204 205 206 206 208 209 208 209 211 212 214 217 221 224 227 229 231 232 232 233 234 235 237 239 240 243 244 243 243 243 241 241 241 242 245 248 249 250 252 255 258 257 254 253 254 256 257 241 225 223 210 198 197 205 210 154 197 214 217 213 214 218 219 213 207 207 215 218 216 220 246 267 268 272 273 260 250 239 242
197 199 201 202 203 204 205 206 206 206 208 210 210 211 213 214 216 218 220 223 227 230 232 233 234 235 236 236 237 238 240 242 242 241 242 242 241 240 241 243 247 249 249 249 250 252 255 253 248 248 253 254 251 236 226 225 211 180 148 180 240 114 167 218 219 220 223 223 222 216 208 205 212 219 224 239 268 274 291 306 282 278 265 240 253
198 200 201 201 202 204 206 206 207 207 208 210 212 213 214 215 217 220 223 225 229 233 235 236 236 237 237 236 235 236 238 239 238 238 240 241 241 240 242 245 248 250 249 249 251 252 251 249 245 243 246 248 242 232 227 224 218 200 148 89 8 89 276 229 207 226 233 228 223 217 210 208 212 218 229 253 273 269 284 325 267 290 296 294 301
200 201 201 201 203 205 206 207 207 207 209 210 211 211 211 213 214 217 222 225 228 230 231 231 232 234 235 235 234 234 237 238 237 238 240 241 241 240 242 245 247 249 249 250 253 254 252 249 247 243 240 239 237 236 231 222 223 222 205 158 89 115 231 182 162 232 242 231 223 214 210 213 215 221 229 239 258 269 277 268 270 315 320 310 320
203 204 203 204 205 206 206 206 206 207 208 210 209 208 209 209 208 209 211 214 218 222 223 224 226 229 231 233 233 235 237 238 238 239 240 241 242 241 243 244 246 248 249 251 253 253 250 248 249 245 237 233 235 240 232 223 226 228 229 233 245 268 229 158 142 80 244 229 224 213 213 217 218 224 229 232 248 261 269 275 285 327 341 331 329
205 205 204 205 206 206 206 206 206 207 208 209 208 207 208 208 208 209 210 211 215 221 223 224 226 228 229 231 233 235 237 238 239 239 240 241 242 243 244 245 247 248 249 251 252 252 249 247 252 247 233 227 231 236 229 226 229 229 237 243 254 268 234 182 170 171 130 208 224 215 219 223 222 226 231 234 242 251 257 269 289 323 343 343 346
205 204 203 205 206 206 206 206 206 207 207 207 207 208 208 209 209 211 213 215 218 222 224 225 227 229 229 231 233 235 237 238 238 239 240 241 242 243 244 245 246 247 248 251 253 252 247 246 249 239 227 224 228 232 230 231 232 230 235 238 246 251 219 204 206 190 146 132 217 214 222 228 229 229 235 240 243 249 251 255 275 308 327 328 338
204 202 202 204 205 205 205 206 206 207 207 207 207 208 210 210 210 210 213 217 221 223 225 225 226 227 228 230 232 233 236 237 237 239 241 242 243 243 244 245 245 245 247 251 253 250 245 244 241 228 222 222 225 230 233 236 238 236 235 234 234 225 209 209 205 191 155 149 194 212 212 222 233 233 235 241 246 249 250 251 263 283 300 298 298
205 204 204 203 203 203 203 204 206 206 206 206 206 208 209 210 210 210 213 217 219 220 223 225 225 225 227 228 229 231 233 235 236 238 240 242 243 243 243 244 244 244 246 250 250 247 244 239 232 226 225 225 225 229 234 238 245 246 242 241 234 219 211 203 187 183 156 152 180 209 204 205 224 234 234 238 245 251 250 248 253 266 282 288 286
208 207 206 204 203 202 202 204 206 206 205 205 206 207 208 208 210 211 213 215 215 215 216 219 220 220 222 224 227 229 231 233 235 237 239 241 242 241 242 243 243 242 244 248 248 247 243 232 224 225 228 229 227 230 234 239 249 250 245 245 243 234 227 223 211 200 184 170 172 194 209 208 218 232 233 235 242 248 250 249 249 254 267 279 284